Overview Statistics Trail Chart Weather Telemetry Raw packets
 

This is the latest recevied weather packets stored in our database for station/object KK6MIG-13. If no packets are shown the sender has not sent any weather packets the latest 10 day(s).

<< 412 413 414 415 416 417 418 >>
Time Temp. Humidity Pressure Rain* Wind** Luminosity Snow
1788039136 16.11° C 10% 1014.3 hPa 0 mm - 981 W/m² -
1788039076 16.11° C 15% 1014.4 hPa 0 mm - 981 W/m² -
1788039016 16.11° C 18% 1014.4 hPa 0 mm - 1095 W/m² -
1788038956 16.11° C 17% 1014.3 hPa 0 mm - 1095 W/m² -
1788038890 16.11° C 10% 1014.3 hPa 0 mm - 1095 W/m² -
1788038830 16.11° C 13% 1014.4 hPa 0 mm - 1095 W/m² -
1788038770 16.11° C 13% 1014.4 hPa 0 mm - 1034 W/m² -
1788038711 16.11° C 11% 1014.4 hPa 0 mm - 1034 W/m² -
1788038650 16.11° C 14% 1014.4 hPa 0 mm - 1034 W/m² -
1788038584 16.11° C 17% 1014.4 hPa 0 mm - 889 W/m² -
1788038533 16.11° C 13% 1014.4 hPa 0 mm - 940 W/m² -
1788038529 16.11° C 18% 1014.4 hPa 0 mm - 940 W/m² -
1788038404 16.11° C 12% 1014.4 hPa 0 mm - 940 W/m² -
1788038344 16.11° C 9% 1014.4 hPa 0 mm - 940 W/m² -
1788038286 16.11° C 10% 1014.3 hPa 0 mm - 930 W/m² -
1788038282 16.11° C 7% 1014.4 hPa 0 mm - 863 W/m² -
1788038158 16.11° C 15% 1014.4 hPa 0 mm - 930 W/m² -
1788038098 16.11° C 16% 1014.4 hPa 0 mm - 916 W/m² -
1788038041 16.11° C 17% 1014.4 hPa 0 mm - 969 W/m² -
1788038037 16.11° C 14% 1014.4 hPa 0 mm - 919 W/m² -
1788037913 16.11° C 16% 1014.3 hPa 0 mm - 954 W/m² -
1788037852 16.11° C 18% 1014.3 hPa 0 mm - 907 W/m² -
1788037792 16.11° C 16% 1014.3 hPa 0 mm - 942 W/m² -
1788037732 16.11° C 16% 1014.3 hPa 0 mm - 958 W/m² -
1788037666 16.11° C 13% 1014.3 hPa 0 mm - 932 W/m² -

* Rain latest hour (hover to see other rain measurements)
** Current wind speed in m/s (hover to see current wind gust speed)